HYSIS

Last updated on Tue Oct 15 2024 00:02:25 GMT+0000 (Coordinated Universal Time)

1 43719U 18096A 24288.48824280 .00003258 00000+0 45140-3 0 9992 2 43719 97.8533 349.6450 0000899 341.6188 18.4991 14.78652487317172
UTC large
Height (km)
Speed (km/s)
/
Latitude / Longitude
Inclination (degrees)
Orbital Period (minutes)
Azimuth
Elevation
Range (km)
Doppler Factor

Next 0 passes for location: London (51.5072 / 0.1276)

Sorry there are no passes over London.